DELTA 1 DEB, 42649

Orbit data source: Space-Track

DELTA 1 DEB, 42649 is space debris in SSO originally from a launch on Thu, 12 Jun 1975 UTC launched from the Air Force Western Test Range (AFWTR). Debris objects in space refer to the collection of defunct objects orbiting the Earth. Examples of debris include non-operational satellites, rocket bodies, and fragments generated from explosions, collisions, or faulty payload assembly.

Loading next visibility...
Identifier
42649, 1975-052MJ
Orbit
SSO
Country
Flag of USUS
Related business
Manufacturer
Unknown
Mission
Spacecraft
Bus & Motor
Unknown
Mass
Unknown
Launch date (UTC)
1975-06-12 (51 years ago)
Launch vehicle
Unknown
Launch site
Air Force Western Test Range (AFWTR)
Object type
Payload
Rocket body
Debris
Shape & HBR
Unknown shape, 0.1 m
Radar Cross Section
Small (<0.1 m²)

Expand to show TLE details & history
Last TLE update: 1 day ago

TLE from 1 day ago
0 DELTA 1 DEB
1 42649U 75052MJ  26126.33770819  .00000090  00000-0  24638-3 0  9994
2 42649  99.7607 355.1415 0035383 339.1418  20.8265 13.39199689613371
Epoch: 2026-05-06T08:06Z
TLE epoch observation values (Epoch: 2026-05-06T08:06:17.987Z)
Latitude
-0°
Longitude
9.36691°
Altitude
1,090.266 km
Speed
7.319 km/s
True Right ascension
23h 40m 33s
True Declination
0° 00' 00"
Sunlit
Object was in daylight at epoch
Visualization orbit readout
Latitude
Unknown
Longitude
Unknown
Altitude
Unknown
Speed
Unknown
Apparent Right ascension
Unknown
Apparent Declination
Unknown
Sunlit
N/A
Visualization observer readout
Local Sidereal Time
17:22:06
Azimuth
Unknown
Elevation
Unknown
Doppler factor
Unknown
Orbital elements
Apogee altitude
1,136.075 km
Perigee altitude
1,083.087 km
Semi-major axis
7,487.718 km
Eccentricity
0.00354
Inclination
99.7607°
RAAN
355.1415°
Arg. of periapsis
339.1418°
True anomaly
20.97125°
Mean anomaly
20.8265°
Eccentric anomaly
20.89882°
Mean motion
3.3498 °/min
Orbital period
107.47 mins
BSTAR
0.00024638
Loading maneuver chart data...
Computing Atmospheric mass density...
Loading historical data...
Loading historical data...
Loading historical data...
Loading historical data...
Loading historical data...
Loading historical data...
Loading historical data...

Documentation

Showing up to 5 results
|